1491354000.27,44387,14.19,73706.8,-2.65,-3.19,-3.15,0,*51
1491354001.48,44388,14.19,73704.3,-2.67,-3.19,-3.23,0,*59
1491354002.7,44389,14.19,73710.8,-2.67,-3.23,-3.23,0,*51
1491354003.89,44390,14.19,73708.3,-2.65,-3.19,-3.19,0,*5B
1491354005.09,44391,14.19,73706.0,-2.65,-3.15,-3.27,0,*5B
1491354006.29,44392,14.19,73706.5,-2.65,-3.27,-3.27,0,*59
1491354007.49,44393,14.19,73706.3,-2.65,-3.31,-3.31,0,*58
1491354008.68,44394,14.19,73712.8,-2.65,-3.39,-3.31,0,*57
1491354009.93,44395,14.19,73712.0,-2.67,-3.47,-3.39,0,*55
1491354011.18,44396,14.19,73706.8,-2.63,-3.39,-3.43,0,*56
1491354012.41,44397,14.19,73710.3,-2.65,-3.43,-3.55,0,*5B
1491354013.68,44398,14.19,73706.5,-2.63,-3.47,-3.55,0,*56
1491354014.92,44399,14.19,73704.3,-2.65,-3.55,-3.71,0,*54
1491354016.19,44400,14.19,73710.0,-2.67,-3.59,-3.71,0,*5D
1491354017.45,44401,14.19,73706.8,-2.67,-3.71,-3.63,0,*55
1491354018.73,44402,14.19,73704.0,-2.67,-3.51,-3.59,0,*5D
1491354019.96,44403,14.19,73702.3,-2.65,-3.55,-3.55,0,*56
1491354021.23,44404,14.19,73700.0,-2.67,-3.51,-3.51,0,*53
1491354022.5,44405,14.19,73706.5,-2.67,-3.47,-3.51,0,*55
1491354023.77,44406,14.19,73704.5,-2.67,-3.51,-3.51,0,*51
1491354025.04,44407,14.19,73700.5,-2.67,-3.51,-3.51,0,*50
1491354026.29,44408,14.19,73702.8,-2.69,-3.51,-3.59,0,*59
1491354027.56,44409,14.19,73700.0,-2.67,-3.59,-3.63,0,*57
1491354028.81,44410,14.19,73700.0,-2.69,-3.51,-3.51,0,*58
1491354030.06,44411,14.19,73698.0,-2.69,-3.51,-3.51,0,*59
1491354031.31,44412,14.19,73700.3,-2.69,-3.51,-3.51,0,*5A
1491354032.56,44413,14.19,73696.8,-2.69,-3.43,-3.43,0,*5B
1491354033.81,44414,14.19,73700.3,-2.69,-3.47,-3.47,0,*5C
1491354035.06,44415,14.19,73702.0,-2.69,-3.47,-3.47,0,*5D
1491354036.32,44416,14.19,73696.0,-2.67,-3.47,-3.47,0,*50
1491354037.57,44417,14.19,73702.8,-2.69,-3.51,-3.51,0,*5F
1491354038.82,44418,14.19,73702.5,-2.69,-3.47,-3.51,0,*57
1491354040.07,44419,14.19,73700.5,-2.69,-3.47,-3.47,0,*51
1491354041.31,44420,14.19,73702.5,-2.69,-3.43,-3.47,0,*5F
1491354042.56,44421,14.19,73700.3,-2.69,-3.43,-3.43,0,*5A
1491354043.81,44422,14.19,73702.3,-2.69,-3.47,-3.47,0,*59
1491354045.06,44423,14.19,73702.8,-2.69,-3.47,-3.47,0,*58
1491354046.3,44424,14.19,73702.3,-2.73,-3.51,-3.51,0,*54
1491354047.55,44425,14.19,73700.0,-2.69,-3.47,-3.47,0,*5E
1491354048.79,44426,14.19,73702.5,-2.73,-3.51,-3.51,0,*56
1491354050.03,44427,14.19,73702.3,-2.69,-3.43,-3.47,0,*58
1491354051.28,44428,14.19,73704.0,-2.69,-3.47,-3.47,0,*53
1491354052.53,44429,14.19,73708.3,-2.73,-3.51,-3.51,0,*59
1491354053.77,44430,14.19,73706.3,-2.69,-3.47,-3.47,0,*5A
1491354055.02,44431,14.19,73708.0,-2.69,-3.47,-3.47,0,*5B
1491354056.27,44432,14.19,73706.0,-2.69,-3.47,-3.47,0,*58
1491354057.51,44433,14.19,73706.5,-2.69,-3.47,-3.47,0,*59
1491354058.76,44434,14.19,73708.0,-2.69,-3.47,-3.47,0,*5E
1491354060.01,44435,14.19,73710.0,-2.73,-3.63,-3.51,0,*55
1491354061.25,44436,14.19,73710.8,-2.73,-3.63,-3.55,0,*52
1491354062.5,44437,14.19,73712.8,-2.69,-3.59,-3.59,0,*5D
1491354063.74,44438,14.19,73712.5,-2.73,-3.63,-3.55,0,*5C
1491354064.99,44439,14.19,73714.0,-2.69,-3.71,-3.63,0,*50
1491354066.21,44440,14.19,73708.5,-2.69,-3.71,-3.83,0,*50
1491354067.41,44441,14.19,73708.3,-2.73,-3.87,-3.91,0,*50
1491354068.67,44442,14.19,73708.8,-2.73,-4.01,-4.01,0,*54
1491354069.92,44443,14.19,73706.0,-2.73,-4.01,-4.01,0,*55
1491354071.15,44444,14.19,73704.8,-2.73,-4.01,-4.13,0,*51
1491354072.34,44445,14.19,73706.8,-2.73,-4.13,-4.17,0,*57
1491354073.53,44446,14.19,73700.0,-2.73,-4.05,-4.17,0,*53
1491354074.76,44447,14.19,73704.0,-2.75,-4.05,-4.05,0,*57
1491354075.99,44448,14.19,73706.8,-2.75,-4.05,-4.05,0,*58
1491354077.21,44449,14.19,73702.0,-2.75,-4.05,-4.13,0,*5E
1491354078.44,44450,14.19,73704.3,-2.77,-4.17,-4.21,0,*56
1491354079.7,44451,14.19,73700.8,-2.77,-4.69,-4.73,0,*59
1491354080.97,44452,14.19,73702.3,-2.77,-4.69,-4.85,0,*53
1491354082.22,44453,14.19,73710.8,-2.77,-4.57,-4.73,0,*56
1491354083.41,44454,14.19,73706.8,-2.79,-4.45,-4.61,0,*5F
1491354084.63,44455,14.19,73704.5,-2.77,-4.45,-4.57,0,*55
1491354085.85,44456,14.19,73704.3,-2.77,-4.33,-4.45,0,*54
1491354087.07,44457,14.19,73702.8,-2.77,-4.29,-4.33,0,*5F
1491354088.29,44458,14.13,73702.3,-2.77,-4.29,-4.41,0,*55
1491354089.51,44459,14.19,73702.5,-2.81,-4.25,-4.33,0,*54
1491354090.73,44460,14.13,73700.3,-2.81,-4.13,-4.33,0,*5B
1491354091.96,44461,14.19,73702.8,-2.81,-4.13,-4.21,0,*59
1491354093.21,44462,14.19,73702.5,-2.81,-4.01,-4.13,0,*58
1491354094.46,44463,14.19,73706.3,-2.81,-3.95,-4.01,0,*50
1491354095.67,44464,14.19,73706.5,-2.81,-3.87,-3.87,0,*5D
1491354096.9,44465,14.13,73706.5,-2.81,-3.95,-3.95,0,*5C
1491354098.11,44466,14.13,73706.0,-2.81,-3.87,-3.87,0,*5F
1491354099.34,44467,14.19,73706.5,-2.81,-3.83,-3.87,0,*5A
1491354100.54,44468,14.19,73706.0,-2.79,-3.83,-3.83,0,*56
1491354101.77,44469,14.19,73706.5,-2.81,-3.75,-3.87,0,*5D
1491354102.99,44470,14.13,73704.0,-2.81,-3.75,-3.75,0,*58
1491354104.22,44471,14.19,73700.8,-2.81,-3.75,-3.75,0,*59
1491354105.47,44472,14.19,73702.3,-2.81,-3.71,-3.75,0,*5E
1491354106.71,44473,14.19,73700.0,-2.79,-3.67,-3.67,0,*5C
1491354107.96,44474,14.19,73704.0,-2.79,-3.59,-3.59,0,*5B
1491354109.22,44475,14.19,73702.8,-2.81,-3.63,-3.63,0,*5D
1491354110.47,44476,14.19,73702.0,-2.79,-3.59,-3.59,0,*59
1491354111.73,44477,14.13,73696.8,-2.81,-3.63,-3.63,0,*5F
1491354112.99,44478,14.13,73696.0,-2.81,-3.55,-3.63,0,*55
1491354114.26,44479,14.19,73698.5,-2.81,-3.59,-3.59,0,*51
1491354115.53,44480,14.13,73698.5,-2.81,-3.59,-3.59,0,*57
1491354116.8,44481,14.19,73700.3,-2.81,-3.59,-3.55,0,*5A
1491354118.07,44482,14.19,73708.0,-2.81,-3.59,-3.59,0,*55
1491354119.34,44483,14.19,73702.8,-2.81,-3.59,-3.59,0,*54
1491354120.61,44484,14.19,73702.3,-2.81,-3.59,-3.59,0,*53
1491354121.84,44485,14.19,73702.5,-2.79,-3.55,-3.55,0,*55
1491354123.08,44486,14.19,73704.5,-2.79,-3.55,-3.55,0,*56
1491354124.35,44487,14.19,73704.3,-2.81,-3.59,-3.63,0,*59
1491354125.59,44488,14.19,73704.5,-2.81,-3.75,-3.63,0,*58
1491354126.83,44489,14.19,73702.8,-2.79,-3.67,-3.71,0,*5E
1491354128.06,44490,14.19,73704.3,-2.81,-3.75,-3.83,0,*5F
1491354129.26,44491,14.19,73702.8,-2.79,-3.83,-3.79,0,*55
1491354130.48,44492,14.19,73700.0,-2.81,-3.95,-3.87,0,*57
1491354131.76,44493,14.19,73702.0,-2.81,-4.01,-4.01,0,*55
1491354132.98,44494,14.19,73704.0,-2.81,-4.09,-4.13,0,*59
1491354134.21,44495,14.19,73700.8,-2.81,-4.25,-4.21,0,*57
1491354135.43,44496,14.19,73702.3,-2.81,-4.25,-4.33,0,*57
1491354136.65,44497,14.19,73700.0,-2.81,-4.33,-4.33,0,*51
1491354137.87,44498,14.19,73706.3,-2.81,-4.33,-4.33,0,*5E
1491354139.06,44499,14.19,73704.8,-2.83,-4.29,-4.41,0,*53
1491354140.26,44500,14.19,73702.5,-2.83,-4.29,-4.41,0,*52
1491354141.45,44501,14.19,73704.3,-2.83,-4.37,-4.41,0,*5C
1491354142.64,44502,14.13,73698.5,-2.83,-4.37,-4.41,0,*5F
1491354143.87,44503,14.19,73702.3,-2.85,-4.29,-4.49,0,*5F
1491354145.06,44504,14.19,73702.3,-2.83,-4.37,-4.41,0,*59
1491354146.28,44505,14.19,73702.3,-2.85,-4.37,-4.41,0,*5E
1491354147.5,44506,14.19,73700.8,-2.85,-4.37,-4.49,0,*55
1491354148.72,44507,14.19,73704.5,-2.85,-4.29,-4.41,0,*53
1491354149.95,44508,14.19,73704.5,-2.85,-4.37,-4.53,0,*50
1491354151.14,44509,14.19,73702.8,-2.83,-4.49,-4.65,0,*5B
1491354152.37,44510,14.13,73700.0,-2.87,-4.61,-4.81,0,*57
1491354153.61,44511,14.13,73698.0,-2.89,-4.61,-4.81,0,*58
1491354154.86,44512,14.19,73702.5,-2.87,-4.73,-4.93,0,*55
1491354156.12,44513,14.19,73702.8,-2.89,-4.73,-4.93,0,*5A
1491354157.36,44514,14.19,73702.8,-2.89,-4.85,-4.99,0,*5E
1491354158.63,44515,14.19,73704.3,-2.89,-4.85,-5.07,0,*59
1491354159.87,44516,14.13,73706.3,-2.89,-4.85,-4.99,0,*5C
1491354161.11,44517,14.13,73700.5,-2.89,-4.81,-4.99,0,*59
1491354162.35,44518,14.19,73702.5,-2.89,-4.81,-4.99,0,*56
1491354163.58,44519,14.13,73702.0,-2.89,-4.85,-4.99,0,*53
1491354164.84,44520,14.13,73702.0,-2.95,-4.89,-5.15,0,*5D
1491354166.09,44521,14.13,73700.3,-2.95,-5.03,-5.27,0,*5E
1491354167.32,44522,14.13,73700.3,-2.95,-4.99,-5.23,0,*5B
1491354168.54,44523,14.13,73704.0,-2.95,-4.99,-5.23,0,*5A
1491354169.76,44524,14.19,73706.3,-2.95,-4.99,-5.11,0,*5C
1491354171.02,44525,14.19,73706.3,-2.95,-5.03,-5.11,0,*5F
1491354172.27,44526,14.19,73704.3,-2.95,-4.89,-5.15,0,*5B
1491354173.52,44527,14.19,73708.0,-2.99,-5.03,-5.19,0,*59
1491354174.78,44528,14.19,73708.8,-2.99,-5.07,-5.15,0,*5E
1491354176.02,44529,14.13,73708.8,-2.99,-4.93,-5.19,0,*5F
1491354177.27,44530,14.19,73714.0,-2.99,-4.77,-4.89,0,*55
1491354178.47,44531,14.19,73710.8,-2.99,-4.65,-4.65,0,*55
1491354179.69,44532,14.19,73708.3,-2.97,-4.49,-4.61,0,*52
1491354180.88,44533,14.13,73708.8,-2.99,-4.53,-4.53,0,*57
1491354182.08,44534,14.13,73704.8,-2.99,-4.37,-4.49,0,*59
1491354183.28,44535,14.13,73704.8,-2.99,-4.29,-4.41,0,*5F
1491354184.48,44536,14.13,73704.5,-2.99,-4.17,-4.25,0,*53
1491354185.68,44537,14.13,73706.5,-2.99,-4.17,-4.25,0,*52
1491354186.91,44538,14.13,73706.8,-3.01,-4.33,-4.41,0,*59
1491354188.14,44539,14.13,73706.5,-3.01,-4.33,-4.53,0,*5B
1491354189.36,44540,14.19,73708.8,-3.01,-4.41,-4.53,0,*50
1491354190.59,44541,14.13,73714.3,-3.01,-4.41,-4.53,0,*51
1491354191.82,44542,14.13,73708.5,-3.01,-4.41,-4.57,0,*56
1491354193.04,44543,14.13,73708.0,-3.01,-4.33,-4.45,0,*51
1491354194.27,44544,14.13,73706.5,-3.01,-4.29,-4.41,0,*59
1491354195.5,44545,14.13,73704.3,-3.01,-4.29,-4.41,0,*58
1491354196.73,44546,14.13,73702.0,-3.01,-4.33,-4.41,0,*50
1491354197.95,44547,14.19,73706.3,-3.01,-4.33,-4.41,0,*51
1491354199.18,44548,14.13,73700.3,-3.01,-4.33,-4.41,0,*5E
1491354200.41,44549,14.13,73702.0,-3.01,-4.33,-4.33,0,*5A
1491354201.64,44550,14.19,73706.0,-3.01,-4.21,-4.29,0,*5A
1491354202.87,44551,14.13,73702.5,-3.01,-4.29,-4.29,0,*53
1491354204.08,44552,14.19,73704.8,-3.03,-4.21,-4.29,0,*5A
1491354205.3,44553,14.13,73704.0,-3.01,-4.09,-4.05,0,*5D
1491354206.54,44554,14.13,73704.3,-3.01,-3.95,-3.91,0,*52
1491354207.77,44555,14.19,73708.0,-3.01,-3.91,-3.83,0,*54
1491354208.98,44556,14.13,73704.3,-2.99,-3.79,-3.79,0,*54
1491354210.21,44557,14.19,73704.3,-3.01,-3.83,-3.83,0,*55
1491354211.44,44558,14.19,73708.0,-3.01,-3.83,-3.83,0,*5A
1491354212.67,44559,14.13,73704.0,-3.01,-3.83,-3.79,0,*5E
1491354213.91,44560,14.13,73710.0,-3.01,-3.79,-3.79,0,*51
1491354215.14,44561,14.13,73710.3,-3.01,-3.79,-3.79,0,*50
1491354216.35,44562,14.13,73704.8,-2.99,-3.75,-3.75,0,*53
1491354217.58,44563,14.19,73710.8,-2.97,-3.79,-3.75,0,*50
1491354218.78,44564,14.13,73704.3,-2.99,-3.87,-3.79,0,*54
1491354220.03,44565,14.13,73710.8,-2.97,-4.01,-3.91,0,*54
1491354221.26,44566,14.19,73710.8,-2.99,-4.01,-3.87,0,*5E
1491354222.46,44567,14.19,73708.0,-2.99,-4.05,-3.91,0,*5C
1491354223.68,44568,14.13,73706.5,-2.99,-4.13,-4.01,0,*5A
1491354224.91,44569,14.19,73708.0,-2.99,-4.05,-4.01,0,*5C
1491354226.13,44570,14.13,73710.0,-2.99,-4.05,-4.01,0,*54
1491354227.33,44571,14.19,73714.3,-2.99,-4.05,-3.91,0,*5B
1491354228.53,44572,14.19,73708.3,-2.99,-4.13,-3.91,0,*5F
1491354229.73,44573,14.19,73708.8,-2.99,-4.05,-4.05,0,*53
1491354230.92,44574,14.13,73702.3,-2.99,-4.17,-4.05,0,*57
1491354232.12,44575,14.13,73702.5,-2.99,-4.05,-4.05,0,*55
1491354233.33,44576,14.19,73706.8,-2.99,-3.91,-4.05,0,*5C
1491354234.56,44577,14.13,73704.5,-2.99,-4.01,-4.05,0,*53
1491354235.77,44578,14.13,73706.0,-2.99,-3.91,-4.13,0,*55
1491354237.0,44579,14.13,73706.5,-2.99,-4.01,-4.13,0,*5A
1491354238.2,44580,14.13,73706.5,-2.99,-3.87,-4.13,0,*55
1491354239.4,44581,14.13,73706.5,-2.99,-3.87,-4.05,0,*53
1491354240.61,44582,14.13,73708.8,-2.99,-3.79,-3.91,0,*5B
1491354241.84,44583,14.13,73706.5,-2.99,-3.79,-4.01,0,*54
1491354243.05,44584,14.19,73708.5,-2.99,-3.79,-3.79,0,*5B
1491354244.26,44585,14.13,73706.5,-2.99,-3.75,-3.79,0,*56
1491354245.5,44586,14.13,73704.5,-2.97,-3.71,-3.79,0,*5F
1491354246.73,44587,14.13,73706.3,-2.99,-3.71,-3.75,0,*5C
1491354247.97,44588,14.13,73706.3,-2.99,-3.71,-3.71,0,*57
1491354249.21,44589,14.19,73704.8,-2.99,-3.63,-3.71,0,*55
1491354250.48,44590,14.19,73704.0,-2.97,-3.59,-3.63,0,*59
1491354251.72,44591,14.13,73700.8,-2.99,-3.59,-3.63,0,*56
1491354252.99,44592,14.13,73700.8,-2.97,-3.63,-3.59,0,*5B
1491354254.24,44593,14.19,73706.8,-2.99,-3.63,-3.59,0,*54
1491354255.52,44594,14.19,73710.0,-2.97,-3.59,-3.59,0,*54
1491354256.76,44595,14.13,73708.0,-2.99,-3.59,-3.63,0,*52
1491354258.03,44596,14.13,73704.5,-2.97,-3.63,-3.51,0,*57
1491354259.27,44597,14.13,73704.0,-2.99,-3.63,-3.51,0,*58
1491354260.54,44598,14.19,73708.5,-2.97,-3.51,-3.51,0,*58
1491354261.81,44599,14.13,73706.8,-2.97,-3.59,-3.51,0,*51
1491354263.09,44600,14.13,73700.3,-2.97,-3.59,-3.59,0,*5A
1491354264.33,44601,14.13,73706.3,-2.95,-3.55,-3.55,0,*59
1491354265.57,44602,14.13,73704.8,-2.95,-3.67,-3.59,0,*57
1491354266.81,44603,14.13,73702.8,-2.95,-3.71,-3.67,0,*5C
1491354268.04,44604,14.13,73704.0,-2.95,-3.75,-3.71,0,*58
1491354269.25,44605,14.13,73708.0,-2.95,-3.83,-3.75,0,*54
1491354270.45,44606,14.13,73708.8,-2.95,-3.83,-3.87,0,*5A
1491354271.65,44607,14.13,73704.0,-2.95,-3.87,-3.95,0,*5C
1491354272.88,44608,14.13,73706.3,-2.91,-3.95,-4.01,0,*5E
1491354274.11,44609,14.13,73706.3,-2.95,-4.01,-4.09,0,*59
1491354275.31,44610,14.13,73704.0,-2.95,-4.09,-4.09,0,*59
1491354276.51,44611,14.13,73708.0,-2.95,-4.09,-4.13,0,*53
1491354277.71,44612,14.19,73710.0,-2.95,-4.13,-4.21,0,*5A
1491354278.92,44613,14.13,73710.0,-2.95,-4.21,-4.21,0,*5A
1491354280.12,44614,14.19,73710.0,-2.95,-4.25,-4.33,0,*5A
1491354281.32,44615,14.19,73710.3,-2.95,-4.33,-4.45,0,*5D
1491354282.52,44616,14.13,73706.8,-2.99,-4.49,-4.61,0,*59
1491354283.72,44617,14.19,73708.5,-2.95,-4.57,-4.65,0,*5F
1491354284.99,44618,14.13,73704.3,-2.97,-4.77,-4.89,0,*52
1491354286.26,44619,14.13,73706.3,-2.97,-4.89,-5.15,0,*56
1491354287.52,44620,14.13,73706.5,-2.99,-5.03,-5.19,0,*5D
1491354288.77,44621,14.13,73700.3,-2.99,-4.89,-5.07,0,*50
1491354290.02,44622,14.13,73700.8,-2.99,-4.69,-4.89,0,*5A
1491354291.26,44623,14.13,73700.5,-2.99,-4.69,-4.81,0,*53
1491354292.5,44624,14.13,73700.0,-2.99,-4.69,-4.81,0,*54
1491354293.74,44625,14.13,73700.8,-3.01,-4.85,-4.99,0,*5E
1491354295.01,44626,14.13,73700.3,-3.01,-4.85,-5.11,0,*5C
1491354296.29,44627,14.13,73700.0,-3.01,-4.85,-5.19,0,*55
1491354297.51,44628,14.19,73706.3,-3.03,-4.99,-5.19,0,*55
1491354298.75,44629,14.13,73704.0,-3.03,-4.93,-5.19,0,*5E
1491354300.0,44630,14.13,73700.0,-3.03,-4.81,-4.85,0,*51
1491354301.26,44631,14.13,73700.3,-3.05,-4.77,-4.85,0,*5F
1491354302.51,44632,14.13,73698.8,-3.07,-4.73,-4.89,0,*56
1491354303.75,44633,14.19,73702.0,-3.05,-4.61,-4.73,0,*53
1491354305.0,44634,14.13,73702.0,-3.05,-4.57,-4.69,0,*5A
1491354306.22,44635,14.13,73700.8,-3.05,-4.49,-4.61,0,*5C
1491354307.44,44636,14.13,73704.0,-3.05,-4.49,-4.61,0,*5F
1491354308.65,44637,14.13,73706.3,-3.05,-4.49,-4.61,0,*5E
1491354309.87,44638,14.13,73706.3,-3.05,-4.49,-4.49,0,*5B
1491354311.09,44639,14.13,73704.8,-3.05,-4.49,-4.57,0,*55
1491354312.29,44640,14.19,73706.5,-3.07,-4.61,-4.61,0,*56
1491354313.48,44641,14.13,73702.0,-3.07,-4.53,-4.61,0,*56
1491354314.68,44642,14.13,73700.5,-3.07,-4.53,-4.61,0,*55
1491354315.9,44643,14.13,73704.3,-3.05,-4.37,-4.49,0,*5E
1491354317.09,44644,14.13,73706.0,-3.07,-4.37,-4.49,0,*5B
1491354318.3,44645,14.13,73706.5,-3.07,-4.25,-4.37,0,*50
1491354319.55,44646,14.13,73706.8,-3.05,-4.01,-4.09,0,*5A
1491354320.8,44647,14.13,73708.0,-3.07,-4.01,-4.01,0,*51
1491354322.03,44648,14.13,73704.8,-3.07,-4.01,-3.91,0,*50
1491354323.24,44649,14.19,73706.0,-3.07,-3.91,-3.91,0,*5F
1491354324.44,44650,14.19,73706.5,-3.07,-3.87,-3.83,0,*53
1491354325.67,44651,14.13,73702.8,-3.05,-3.83,-3.79,0,*51
1491354326.87,44652,14.13,73704.3,-3.07,-3.83,-3.75,0,*5C
1491354328.12,44653,14.13,73704.0,-3.05,-3.79,-3.67,0,*59
1491354329.36,44654,14.13,73700.8,-3.07,-3.67,-3.71,0,*54
1491354330.59,44655,14.13,73704.8,-3.07,-3.75,-3.71,0,*56
1491354331.85,44656,14.13,73700.0,-3.05,-3.67,-3.67,0,*53
1491354333.11,44657,14.13,73700.3,-3.05,-3.67,-3.67,0,*52
1491354334.38,44658,14.13,73702.5,-3.01,-3.63,-3.63,0,*59
1491354335.62,44659,14.13,73706.0,-3.03,-3.55,-3.55,0,*5A
1491354336.88,44660,14.13,73704.0,-3.05,-3.59,-3.67,0,*5B
1491354338.12,44661,14.13,73706.0,-3.03,-3.55,-3.63,0,*54
1491354339.37,44662,14.13,73706.0,-3.03,-3.63,-3.63,0,*52
1491354340.61,44663,14.13,73704.5,-3.03,-3.63,-3.63,0,*53
1491354341.86,44664,14.13,73704.5,-3.03,-3.63,-3.67,0,*50
1491354343.11,44665,14.13,73704.8,-3.01,-3.63,-3.75,0,*50
1491354344.36,44666,14.13,73702.3,-3.01,-3.67,-3.75,0,*57
1491354345.6,44667,14.13,73700.3,-3.01,-3.75,-3.79,0,*59
1491354346.83,44668,14.19,73706.8,-3.01,-3.75,-3.75,0,*5A
1491354348.08,44669,14.13,73704.0,-3.01,-3.67,-3.75,0,*58
1491354349.29,44670,14.13,73704.8,-3.03,-3.75,-3.79,0,*5D
1491354350.54,44671,14.19,73712.5,-3.01,-3.67,-3.75,0,*51
1491354351.8,44672,14.13,73712.5,-3.01,-3.63,-3.79,0,*5A
1491354353.05,44673,14.13,73704.8,-3.01,-3.67,-3.75,0,*53
1491354354.32,44674,14.13,73706.8,-3.01,-3.63,-3.67,0,*53
1491354355.56,44675,14.13,73700.0,-2.99,-3.63,-3.71,0,*55
1491354356.81,44676,14.13,73704.0,-3.01,-3.63,-3.75,0,*52
1491354358.07,44677,14.13,73706.8,-3.01,-3.67,-3.75,0,*57
1491354359.31,44678,14.13,73704.5,-2.99,-3.71,-3.71,0,*5B
1491354360.51,44679,14.13,73702.5,-2.99,-3.75,-3.75,0,*5A
1491354361.72,44680,14.13,73700.8,-2.99,-3.79,-3.75,0,*50
1491354362.92,44681,14.13,73702.8,-2.99,-3.87,-3.87,0,*5D
1491354364.15,44682,14.19,73706.3,-2.99,-4.01,-3.91,0,*50
1491354365.35,44683,14.13,73704.3,-2.99,-4.13,-4.13,0,*5F
1491354366.57,44684,14.13,73706.3,-2.97,-4.29,-4.37,0,*59
1491354367.77,44685,14.13,73702.8,-2.99,-4.49,-4.49,0,*59
1491354368.97,44686,14.13,73702.8,-2.99,-4.53,-4.65,0,*5F
1491354370.19,44687,14.13,73704.5,-2.99,-4.53,-4.81,0,*54
1491354371.41,44688,14.13,73706.5,-2.99,-4.53,-4.77,0,*52
1491354372.66,44689,14.13,73704.5,-3.01,-4.65,-4.73,0,*52
1491354373.91,44690,14.13,73706.5,-3.01,-4.65,-4.73,0,*5A
1491354375.15,44691,14.13,73704.8,-3.01,-4.65,-4.73,0,*5B
1491354376.38,44692,14.13,73700.5,-3.03,-4.65,-4.73,0,*5A
1491354377.63,44693,14.13,73704.5,-3.01,-4.65,-4.73,0,*59
1491354378.88,44694,14.13,73702.5,-3.01,-4.57,-4.73,0,*5F
1491354380.1,44695,14.13,73706.5,-3.03,-4.65,-4.81,0,*50
1491354381.33,44696,14.13,73702.8,-3.03,-4.65,-4.81,0,*53
1491354382.56,44697,14.13,73704.3,-3.03,-4.65,-4.69,0,*54
1491354383.81,44698,14.13,73704.0,-3.01,-4.57,-4.69,0,*58
1491354385.02,44699,14.13,73698.0,-3.03,-4.57,-4.65,0,*57
1491354386.26,44700,14.13,73702.5,-3.05,-4.61,-4.69,0,*59
1491354387.5,44701,14.13,73704.0,-3.05,-4.61,-4.77,0,*57
1491354388.74,44702,14.13,73706.0,-3.05,-4.61,-4.77,0,*54
1491354389.98,44703,14.13,73706.8,-3.05,-4.49,-4.77,0,*5F
1491354391.23,44704,14.13,73706.3,-3.05,-4.57,-4.73,0,*53
1491354392.43,44705,14.13,73704.0,-3.07,-4.41,-4.65,0,*50
1491354393.65,44706,14.13,73708.8,-3.05,-4.25,-4.49,0,*5D
1491354394.87,44707,14.13,73704.5,-3.05,-4.25,-4.49,0,*5C
1491354396.07,44708,14.13,73706.5,-3.07,-4.29,-4.49,0,*5D
1491354397.3,44709,14.13,73704.5,-3.05,-4.25,-4.37,0,*5B
1491354398.5,44710,14.13,73704.0,-3.07,-4.49,-4.53,0,*59
1491354399.69,44711,14.13,73704.5,-3.07,-4.53,-4.53,0,*53
1491354400.89,44712,14.13,73702.8,-3.07,-4.53,-4.53,0,*50
1491354402.09,44713,14.13,73702.5,-3.07,-4.61,-4.61,0,*51
1491354403.29,44714,14.13,73704.3,-3.07,-4.61,-4.61,0,*56
1491354404.49,44715,14.13,73702.5,-3.07,-4.53,-4.61,0,*56
1491354405.72,44716,14.13,73700.3,-3.05,-4.57,-4.57,0,*56
1491354406.96,44717,14.13,73700.5,-3.05,-4.57,-4.69,0,*5A
1491354408.21,44718,14.13,73700.8,-3.09,-4.61,-4.73,0,*57
1491354409.44,44719,14.13,73702.8,-3.09,-4.61,-4.65,0,*51
1491354410.69,44720,14.13,73706.5,-3.09,-4.61,-4.77,0,*58
1491354411.93,44721,14.13,73704.8,-3.07,-4.73,-4.81,0,*5D
1491354413.18,44722,14.13,73706.0,-3.11,-4.85,-5.07,0,*5F
1491354414.4,44723,14.13,73706.3,-3.11,-4.99,-5.19,0,*5C
1491354415.62,44724,14.13,73706.8,-3.11,-4.99,-5.31,0,*51
1491354416.9,44725,14.13,73710.8,-3.09,-5.03,-5.19,0,*51
1491354418.12,44726,14.13,73710.3,-3.11,-4.99,-5.19,0,*59
1491354419.37,44727,14.13,73704.0,-3.11,-4.93,-5.19,0,*52
1491354420.61,44728,14.13,73704.8,-3.11,-4.93,-5.11,0,*55
1491354421.84,44729,14.13,73706.0,-3.13,-4.85,-4.99,0,*50
1491354423.08,44730,14.13,73710.0,-3.17,-4.81,-4.99,0,*58
1491354424.32,44731,14.13,73706.5,-3.11,-4.69,-4.77,0,*59
1491354425.58,44732,14.13,73708.5,-3.13,-4.69,-4.77,0,*58
1491354426.85,44733,14.13,73706.8,-3.13,-4.77,-4.81,0,*5F
1491354428.12,44734,14.13,73704.8,-3.17,-4.73,-4.73,0,*55
1491354429.38,44735,14.13,73700.8,-3.13,-4.69,-4.77,0,*5F
1491354430.65,44736,14.13,73708.0,-3.17,-4.73,-4.89,0,*52
1491354431.92,44737,14.13,73704.5,-3.13,-4.69,-4.81,0,*54
1491354433.18,44738,14.13,73704.8,-3.17,-4.69,-4.73,0,*52
1491354434.4,44739,14.13,73704.0,-3.13,-4.53,-4.65,0,*59
1491354435.62,44740,14.13,73708.8,-3.17,-4.49,-4.61,0,*5C
1491354436.84,44741,14.13,73700.8,-3.17,-4.37,-4.49,0,*5E
1491354438.05,44742,14.13,73702.5,-3.17,-4.37,-4.45,0,*51
1491354439.27,44743,14.13,73700.0,-3.13,-4.29,-4.41,0,*5F
1491354440.5,44744,14.13,73704.8,-3.17,-4.25,-4.45,0,*54
1491354441.72,44745,14.13,73702.8,-3.17,-4.25,-4.25,0,*53
1491354442.96,44746,14.13,73708.5,-3.17,-4.21,-4.25,0,*54
1491354444.17,44747,14.13,73702.8,-3.13,-4.09,-4.09,0,*55
1491354445.4,44748,14.13,73704.0,-3.17,-4.13,-4.21,0,*5F
1491354446.63,44749,14.13,73700.8,-3.17,-4.13,-4.13,0,*5F
1491354447.88,44750,14.13,73704.8,-3.17,-4.01,-4.09,0,*5F
1491354449.1,44751,14.13,73704.3,-3.17,-4.13,-4.09,0,*5D
1491354450.32,44752,14.19,73708.8,-3.17,-4.09,-4.13,0,*5E
1491354451.55,44753,14.13,73700.3,-3.13,-3.95,-3.95,0,*50
1491354452.77,44754,14.13,73700.5,-3.13,-3.95,-3.95,0,*57
1491354454.0,44755,14.13,73700.3,-3.13,-3.91,-3.95,0,*52
1491354455.23,44756,14.13,73702.3,-3.13,-3.91,-3.95,0,*51
1491354456.44,44757,14.13,73700.3,-3.11,-3.91,-3.95,0,*52
1491354457.64,44758,14.13,73702.8,-3.11,-3.91,-3.95,0,*5D
1491354458.87,44759,14.13,73702.5,-3.13,-3.91,-3.95,0,*5E
1491354460.1,44760,14.13,73704.5,-3.13,-3.91,-3.91,0,*50
1491354461.3,44761,14.13,73700.5,-3.11,-3.95,-3.95,0,*53
1491354462.5,44762,14.13,73702.3,-3.11,-3.95,-4.05,0,*5E
1491354463.71,44763,14.13,73700.3,-3.11,-3.95,-3.95,0,*51
1491354464.91,44764,14.13,73702.5,-3.11,-3.95,-3.95,0,*56
1491354466.11,44765,14.13,73702.3,-3.11,-3.91,-3.95,0,*53
1491354467.32,44766,14.13,73706.0,-3.11,-3.91,-3.87,0,*53
1491354468.55,44767,14.13,73706.3,-3.09,-3.83,-3.83,0,*5C
1491354469.8,44768,14.13,73706.3,-3.09,-3.83,-3.71,0,*5E
1491354471.0,44769,14.13,73702.0,-3.11,-3.79,-3.75,0,*57
1491354472.24,44770,14.13,73700.5,-3.09,-3.75,-3.75,0,*5A
1491354473.47,44771,14.13,73704.8,-3.09,-3.75,-3.75,0,*5B
1491354474.68,44772,14.13,73700.8,-3.11,-3.91,-3.87,0,*56
1491354475.9,44773,14.13,73700.0,-3.09,-3.87,-3.87,0,*59
1491354477.11,44774,14.13,73700.3,-3.11,-3.91,-3.91,0,*57
1491354478.34,44775,14.13,73696.8,-3.09,-3.91,-3.87,0,*58
1491354479.57,44776,14.13,73696.3,-3.09,-3.91,-3.87,0,*5B
1491354480.82,44777,14.13,73706.5,-3.09,-4.01,-4.05,0,*59
1491354482.03,44778,14.13,73706.0,-3.07,-4.25,-4.25,0,*5C
1491354483.23,44779,14.13,73706.3,-3.07,-4.37,-4.37,0,*5D
1491354484.45,44780,14.13,73702.3,-3.09,-4.37,-4.41,0,*54
1491354485.65,44781,14.13,73702.0,-3.11,-4.41,-4.53,0,*5E
1491354486.87,44782,14.13,73700.5,-3.09,-4.41,-4.49,0,*5F
1491354488.1,44783,14.13,73698.8,-3.09,-4.29,-4.41,0,*58
1491354489.3,44784,14.13,73700.8,-3.07,-4.29,-4.37,0,*50
1491354490.49,44785,14.13,73702.5,-3.07,-4.37,-4.53,0,*5C
1491354491.72,44786,14.13,73702.3,-3.09,-4.49,-4.61,0,*59
1491354492.92,44787,14.13,73696.5,-3.07,-4.53,-4.65,0,*59
1491354494.16,44788,14.13,73700.3,-3.09,-4.61,-4.73,0,*5E
1491354495.41,44789,14.13,73700.3,-3.11,-4.69,-4.85,0,*57
1491354496.66,44790,14.13,73700.5,-3.09,-4.65,-4.81,0,*5E
1491354497.93,44791,14.13,73698.0,-3.09,-4.73,-4.81,0,*58
1491354499.2,44792,14.13,73700.8,-3.09,-4.77,-4.81,0,*5F
1491354500.44,44793,14.13,73700.3,-3.11,-4.77,-4.85,0,*53
1491354501.68,44794,14.13,73702.0,-3.11,-4.69,-4.85,0,*5B
1491354502.92,44795,14.13,73702.5,-3.11,-4.77,-4.85,0,*55
1491354504.16,44796,14.13,73698.8,-3.11,-4.77,-4.85,0,*56
1491354505.43,44797,14.13,73698.0,-3.13,-4.77,-4.93,0,*52
1491354506.69,44798,14.13,73698.3,-3.13,-4.77,-4.93,0,*5D
1491354507.93,44799,14.13,73702.0,-3.13,-4.81,-4.99,0,*5F
1491354509.19,44800,14.13,73700.0,-3.13,-4.81,-4.93,0,*5A